Volver al catálogo

SL-12 DEB

ActivoLEO
NORAD 18767·DEBRIS·🇷🇺 Russia

Lanzado May 30, 1985 desde Baikonur Cosmodrome

Loading…

Próximos Pases (próximas 24 horas)

TLE

ActualizadoSource: Space-Track

Época: Sep 14, 2026, 07:02 UTC

1 18767U 85042K   26257.29307241  .00001113  00000-0  67519-3 0  9995
2 18767  66.5850  10.7256 0139827 188.3218 171.5548 14.05266015963260

Sigue SL-12 DEB en tiempo real con AllMySat

Download on the App Store